Regional Weather Roundup
Issued by NWS

Home | Current Version | Previous Version | Text Only | Print | Product List | Glossary On
Versions: 1 2 3 4 5 6 7 8 9 10 11 12 13 14 15 16 17 18 19 20 21 22 23 24 25 26 27 28 29 30 31 32 33 34 35 36 37 38 39 40 41 42 43 44 45 46 47 48 49
000
ASUS46 KSEW 300910
RWRWA

WASHINGTON REGIONAL WEATHER ROUNDUP
NATIONAL WEATHER SERVICE SEATTLE WA
100 AM PST FRI JAN 30 2015

NOTE:"FAIR" INDICATES FEW OR NO CLOUDS BELOW 12,000 FEET WITH NO
SIGNIFICANT WEATHER AND/OR OBSTRUCTIONS TO VISIBILITY.

WAZ505-507>509-301000-
SEATTLE, TACOMA, EVERETT, AND VICINITY

CITY           SKY/WX    TMP DP  RH WIND       PRES   REMARKS
EVERETT        FOG       40  39  97 N3        30.30S VSB 1/4
BOEING FIELD   CLEAR     42  35  76 CALM      30.30F
RENTON         CLEAR     37  36  96 CALM      30.30F
SEATAC AIRPORT CLEAR     41  37  86 N3        30.29F
JBLM-MCCHORD   CLEAR     32  32 100 CALM      30.30
PUYALLUP       FAIR      34  34 100 CALM      30.29F FOG
BREMERTON        N/A     30  30 100 CALM      30.32R
JBLM-FT LEWIS  CLEAR     32  31  99 SE3       30.29F FOG
TACOMA NARROWS CLEAR     40  37  89 CALM      30.30S
$$

WAZ001-503-506-510-514-515-301000-
NORTH INTERIOR

CITY           SKY/WX    TMP DP  RH WIND       PRES   REMARKS
BELLINGHAM     MOCLDY    37  33  85 CALM      30.32F
FRIDAY HARBOR  PTCLDY    41  40  96 CALM      30.33S
EASTSOUND      CLOUDY    41  41 100 CALM      30.32S
PORT ANGELES   CLEAR     32  30  92 SW3       30.32S
NAS WHIDBEY    PTCLDY    36  34  92 CALM      30.33S
ARLINGTON      MOCLDY    32  27  80 CALM      30.32S
BURLINGTON     CLEAR     37 N/A N/A CALM      30.33F
$$

WAZ020-022-039-040-504-511-512-301000-
SOUTHWEST INTERIOR

CITY           SKY/WX    TMP DP  RH WIND       PRES   REMARKS
SHELTON        FOG       31  30  96 CALM      30.29S VSB 1/2
OLYMPIA        FOG       32  31  96 CALM      30.31R VSB 1/2
CHEHALIS       FOG       39  39 100 CALM      30.31S VSB 1/4
KELSO          CLOUDY    41  37  87 N3        30.33S VSB 1/2
VANCOUVER      CLEAR     33  31  92 CALM      30.29F
SCAPPOOSE, OR  FOG       34  33  96 W5        30.29S VSB 1/2
PORTLAND, OR   CLEAR     41  37  86 CALM      30.30S
$$

WAZ021-516-517-301000-
WASHINGTON COAST

CITY           SKY/WX    TMP DP  RH WIND       PRES   REMARKS
FORKS          CLEAR     35  35 100 NE3       30.31R
HOQUIAM        CLEAR     41  38  89 NE5       30.29S
ASTORIA, OR    CLEAR     41  39  93 E3        30.26S
$$

WAZ019-023-024-040-518-519-301000-
CASCADE MOUNTAINS AND COLUMBIA GORGE

CITY           SKY/WX    TMP DP  RH WIND       PRES   REMARKS
TROUTDALE, OR  CLEAR     43  34  70 E20G25    30.27F
THE DALLES, OR CLOUDY    40  36  86 E3        30.45F
$$

WAZ026-027-041>044-520-521-301000-
EAST SLOPES

CITY           SKY/WX    TMP DP  RH WIND       PRES   REMARKS
OMAK           CLOUDY    34  31  88 CALM      30.42F
WENATCHEE      CLOUDY    36  31  82 NW5       30.43S
ELLENSBURG     CLOUDY    35  32  88 W3        30.39F FOG
YAKIMA         CLOUDY    37  34  89 CALM      30.42F
$$

WAZ028-034-035-301000-
COLUMBIA BASIN

CITY           SKY/WX    TMP DP  RH WIND       PRES   REMARKS
EPHRATA        CLOUDY    37  35  92 CALM      30.40S
MOSES LAKE     CLOUDY    36  34  92 CALM      30.41F
PASCO          CLOUDY    38  37  97 CALM      30.45F
HERMISTON, OR  CLOUDY    37  36  96 W3        30.44S FOG
$$

WAZ036>038-301000-
NORTHEAST WASHINGTON

CITY           SKY/WX    TMP DP  RH WIND       PRES   REMARKS
SPOKANE GEIGER FOG       27  27 100 NE5       30.36F VSB 1/4
SPOKANE FELTS  FOG       29  28  96 CALM      30.39F VSB 1/4
FAIRCHILD AFB  FOG       29  29 100 N3        30.35F VSB 1/4
COEURDALENE,ID MOCLDY    30  28  93 NE9       30.36F
DEER PARK      FOG       26  25  96 CALM      30.37F VSB 1/4
$$

WAZ029>033-301000-
SOUTHEAST WASHINGTON

CITY           SKY/WX    TMP DP  RH WIND       PRES   REMARKS
PULLMAN        FOG       32  31  96 CALM      30.36S VSB 1/4
LEWISTON, ID   CLOUDY    38  35  89 NE3       30.38F
WALLA WALLA    CLOUDY    36  33  89 S5        30.41F FOG
PENDLETON, OR  CLOUDY    34  33  96 CALM      30.39F
$$


USA.gov is the U.S. government's official web portal to all federal, state and local government web resources and services.